QPF
0.00 0.00 0.00 0.00 0.00 0.00 0.00 0.00 0.00 0.01 0.01 0.00 0.01 0.01 0.01 0.01 0.01 0.01 0.00 0.00 0.00 0.00 0.00 0.00 0.00 0.00 0.00 0.00 0.01 0.01 0.01 0.01 0.01 0.01 0.01 0.00 0.00 0.00 0.00 0.00 0.00 0.00 0.00 0.00 0.00 0.00 0.00 0.01 0.01
0.00 0.00 0.00 0.00 0.01 0.01 0.00 0.00 0.00 0.00 0.00 0.00 0.01 0.01 0.01 0.01 0.00 0.00 0.00 0.00 0.00 0.00 0.00 0.00 0.00 0.00 0.00 0.00 0.00 0.01 0.01 0.01 0.01 0.01 0.00 0.00 0.00 0.00 0.00 0.00 0.00 0.00 0.00 0.00 0.00 0.00 0.00 0.00 0.00
0.00 0.00 0.00 0.01 0.02 0.01 0.00 0.00 0.00 0.00 0.00 0.01 0.01 0.01 0.01 0.02 0.01 0.00 0.00 0.00 0.00 0.00 0.00 0.00 0.00 0.00 0.00 0.00 0.00 0.00 0.00 0.01 0.01 0.01 0.00 0.00 0.00 0.00 0.00 0.00 0.00 0.00 0.00 0.00 0.00 0.00 0.00 0.00 0.00
0.00 0.00 0.00 0.01 0.01 0.00 0.00 0.00 0.00 0.00 0.00 0.00 0.01 0.01 0.01 0.01 0.00 0.00 0.00 0.00 0.00 0.00 0.00 0.00 0.00 0.00 0.00 0.00 0.00 0.00 0.00 0.00 0.00 0.00 0.00 0.00 0.00 0.01 0.00 0.00 0.00 0.00 0.00 0.00 0.00 0.00 0.00 0.00 0.00
0.00 0.00 0.01 0.01 0.00 0.00 0.00 0.00 0.00 0.00 0.00 0.00 0.01 0.01 0.01 0.00 0.00 0.00 0.00 0.00 0.00 0.00 0.00 0.00 0.01 0.01 0.00 0.00 0.00 0.00 0.00 0.00 0.00 0.00 0.00 0.00 0.00 0.00 0.00 0.01 0.01 0.01 0.01 0.01 0.01 0.01 0.01 0.00 0.00
0.00 0.00 0.01 0.01 0.00 0.00 0.00 0.00 0.00 0.00 0.00 0.00 0.01 0.01 0.01 0.00 0.00 0.01 0.04 0.04 0.01 0.01 0.01 0.01 0.01 0.01 0.01 0.01 0.00 0.01 0.01 0.01 0.01 0.01 0.01 0.01 0.01 0.01 0.01 0.01 0.01 0.01 0.01 0.01 0.01 0.01 0.01 0.01 0.00
0.00 0.00 0.00 0.00 0.00 0.00 0.00 0.00 0.00 0.00 0.00 0.00 0.00 0.01 0.01 0.00 0.01 0.01 0.06 0.07 0.03 0.02 0.02 0.03 0.02 0.02 0.02 0.01 0.01 0.01 0.01 0.01 0.02 0.02 0.02 0.02 0.02 0.02 0.03 0.03 0.03 0.03 0.02 0.02 0.02 0.02 0.02 0.02 0.01
0.00 0.00 0.00 0.00 0.00 0.00 0.00 0.00 0.00 0.00 0.00 0.00 0.00 0.01 0.01 0.01 0.02 0.03 0.04 0.03 0.03 0.03 0.03 0.03 0.04 0.04 0.03 0.02 0.02 0.02 0.02 0.02 0.02 0.03 0.03 0.04 0.03 0.03 0.03 0.02 0.03 0.03 0.03 0.03 0.03 0.03 0.03 0.03 0.02
0.00 0.00 0.00 0.00 0.00 0.00 0.00 0.00 0.00 0.00 0.01 0.00 0.01 0.01 0.00 0.01 0.01 0.01 0.02 0.04 0.05 0.04 0.04 0.03 0.03 0.04 0.03 0.03 0.03 0.03 0.04 0.03 0.03 0.04 0.05 0.04 0.05 0.05 0.05 0.04 0.04 0.04 0.05 0.06 0.06 0.05 0.05 0.04 0.03
0.00 0.00 0.00 0.00 0.00 0.00 0.00 0.00 0.00 0.00 0.01 0.01 0.01 0.00 0.00 0.01 0.01 0.01 0.01 0.01 0.03 0.03 0.03 0.03 0.03 0.03 0.03 0.03 0.05 0.06 0.05 0.05 0.04 0.06 0.07 0.07 0.07 0.07 0.05 0.04 0.05 0.05 0.08 0.09 0.09 0.08 0.08 0.07 0.06
0.00 0.00 0.00 0.00 0.00 0.00 0.00 0.00 0.00 0.01 0.02 0.02 0.03 0.01 0.00 0.01 0.02 0.02 0.01 0.01 0.01 0.02 0.02 0.03 0.03 0.04 0.04 0.04 0.05 0.07 0.08 0.07 0.06 0.06 0.07 0.08 0.08 0.08 0.07 0.08 0.09 0.10 0.11 0.12 0.13 0.13 0.11 0.12 0.12
0.00 0.00 0.00 0.00 0.00 0.00 0.00 0.00 0.00 0.00 0.01 0.01 0.01 0.01 0.00 0.01 0.03 0.03 0.01 0.02 0.02 0.01 0.02 0.02 0.04 0.06 0.07 0.05 0.05 0.07 0.09 0.10 0.10 0.10 0.11 0.13 0.14 0.14 0.13 0.13 0.14 0.14 0.14 0.16 0.17 0.15 0.15 0.14 0.13
0.00 0.00 0.00 0.00 0.00 0.00 0.00 0.00 0.00 0.00 0.00 0.00 0.00 0.01 0.01 0.02 0.04 0.04 0.02 0.02 0.03 0.04 0.03 0.04 0.06 0.07 0.07 0.08 0.08 0.08 0.11 0.13 0.14 0.14 0.16 0.17 0.19 0.20 0.19 0.20 0.17 0.16 0.15 0.13 0.13 0.12 0.13 0.13 0.13
0.00 0.00 0.00 0.00 0.00 0.00 0.00 0.00 0.00 0.00 0.00 0.00 0.01 0.02 0.02 0.03 0.03 0.03 0.03 0.04 0.06 0.06 0.06 0.10 0.12 0.12 0.14 0.13 0.14 0.14 0.14 0.15 0.15 0.14 0.16 0.16 0.17 0.17 0.20 0.23 0.19 0.14 0.13 0.12 0.11 0.10 0.11 0.13 0.13
0.00 0.00 0.00 0.00 0.00 0.00 0.01 0.01 0.01 0.01 0.01 0.01 0.01 0.02 0.03 0.04 0.04 0.05 0.06 0.09 0.11 0.13 0.13 0.12 0.12 0.15 0.21 0.22 0.21 0.19 0.19 0.18 0.15 0.17 0.18 0.16 0.13 0.14 0.13 0.14 0.11 0.09 0.10 0.11 0.11 0.12 0.11 0.08 0.08
0.00 0.00 0.00 0.00 0.00 0.01 0.01 0.02 0.02 0.02 0.02 0.02 0.02 0.03 0.04 0.04 0.05 0.07 0.09 0.10 0.12 0.13 0.13 0.12 0.16 0.18 0.18 0.20 0.20 0.17 0.18 0.17 0.14 0.14 0.12 0.10 0.08 0.08 0.07 0.07 0.06 0.06 0.07 0.07 0.08 0.08 0.08 0.09 0.09
0.00 0.00 0.00 0.00 0.00 0.01 0.01 0.02 0.03 0.05 0.06 0.05 0.04 0.05 0.06 0.06 0.06 0.06 0.08 0.09 0.13 0.15 0.14 0.18 0.18 0.20 0.20 0.17 0.13 0.11 0.10 0.09 0.09 0.08 0.06 0.05 0.04 0.05 0.06 0.05 0.05 0.04 0.05 0.05 0.05 0.04 0.04 0.06 0.08
0.00 0.00 0.00 0.00 0.00 0.00 0.01 0.02 0.04 0.07 0.10 0.08 0.07 0.06 0.06 0.07 0.07 0.06 0.05 0.06 0.09 0.13 0.14 0.14 0.11 0.10 0.10 0.08 0.06 0.07 0.05 0.04 0.05 0.04 0.03 0.04 0.04 0.04 0.05 0.05 0.04 0.03 0.03 0.03 0.03 0.03 0.04 0.04 0.05
0.00 0.00 0.00 0.00 0.00 0.01 0.02 0.03 0.05 0.08 0.11 0.11 0.09 0.07 0.06 0.07 0.07 0.05 0.05 0.04 0.04 0.06 0.07 0.07 0.05 0.05 0.05 0.04 0.04 0.04 0.03 0.02 0.02 0.02 0.02 0.02 0.02 0.02 0.02 0.01 0.01 0.01 0.01 0.01 0.02 0.02 0.02 0.03 0.03
0.00 0.00 0.00 0.00 0.00 0.01 0.02 0.03 0.03 0.04 0.07 0.08 0.08 0.07 0.06 0.07 0.05 0.04 0.03 0.03 0.03 0.03 0.03 0.03 0.03 0.02 0.02 0.02 0.02 0.02 0.01 0.01 0.01 0.01 0.01 0.01 0.01 0.01 0.00 0.00 0.00 0.00 0.00 0.00 0.01 0.01 0.01 0.01 0.02
0.00 0.00 0.00 0.00 0.00 0.01 0.02 0.04 0.04 0.03 0.03 0.04 0.05 0.04 0.04 0.05 0.04 0.03 0.02 0.02 0.02 0.02 0.02 0.02 0.01 0.01 0.01 0.01 0.01 0.00 0.00 0.00 0.00 0.00 0.00 0.00 0.00 0.00 0.00 0.00 0.00 0.00 0.00 0.00 0.00 0.00 0.01 0.01 0.01
0.00 0.00 0.00 0.00 0.01 0.01 0.01 0.04 0.03 0.02 0.02 0.03 0.03 0.03 0.03 0.02 0.01 0.01 0.01 0.01 0.01 0.00 0.00 0.00 0.00 0.00 0.00 0.00 0.00 0.00 0.00 0.00 0.00 0.00 0.00 0.00 0.00 0.00 0.01 0.00 0.00 0.00 0.00 0.00 0.00 0.00 0.01 0.01 0.01
0.00 0.00 0.00 0.00 0.00 0.00 0.01 0.02 0.01 0.01 0.02 0.03 0.04 0.03 0.03 0.01 0.01 0.00 0.00 0.00 0.00 0.00 0.00 0.00 0.01 0.01 0.00 0.00 0.00 0.01 0.01 0.00 0.00 0.00 0.01 0.01 0.01 0.01 0.00 0.00 0.00 0.00 0.00 0.00 0.01 0.01 0.01 0.01 0.01
0.00 0.00 0.00 0.00 0.00 0.01 0.00 0.01 0.01 0.01 0.01 0.01 0.01 0.01 0.00 0.00 0.00 0.00 0.00 0.00 0.00 0.00 0.00 0.00 0.01 0.01 0.00 0.00 0.01 0.01 0.01 0.02 0.01 0.01 0.01 0.01 0.01 0.01 0.00 0.00 0.00 0.01 0.01 0.01 0.01 0.01 0.01 0.01 0.01
0.00 0.00 0.01 0.01 0.01 0.01 0.00 0.00 0.00 0.00 0.00 0.00 0.00 0.00 0.00 0.00 0.00 0.00 0.00 0.00 0.00 0.00 0.00 0.00 0.00 0.01 0.00 0.00 0.01 0.01 0.01 0.01 0.01 0.01 0.00 0.00 0.00 0.00 0.00 0.00 0.00 0.00 0.01 0.01 0.01 0.01 0.01 0.01 0.01
0.00 0.00 0.01 0.02 0.01 0.00 0.00 0.00 0.00 0.00 0.00 0.00 0.00 0.00 0.00 0.00 0.00 0.00 0.00 0.00 0.00 0.00 0.00 0.00 0.00 0.01 0.01 0.00 0.00 0.00 0.00 0.00 0.00 0.00 0.00 0.00 0.00 0.00 0.00 0.00 0.00 0.00 0.00 0.00 0.00 0.00 0.00 0.01 0.01
0.00 0.00 0.00 0.00 0.00 0.00 0.00 0.00 0.00 0.00 0.00 0.00 0.00 0.00 0.00 0.00 0.00 0.00 0.00 0.00 0.00 0.00 0.00 0.00 0.00 0.00 0.00 0.00 0.00 0.00 0.00 0.00 0.00 0.00 0.00 0.00 0.00 0.00 0.00 0.00 0.00 0.00 0.00 0.00 0.00 0.00 0.00 0.00 0.01
0.00 0.00 0.00 0.00 0.02 0.01 0.00 0.00 0.00 0.00 0.00 0.00 0.00 0.00 0.00 0.00 0.00 0.00 0.00 0.00 0.00 0.00 0.00 0.00 0.00 0.00 0.00 0.00 0.00 0.00 0.00 0.00 0.00 0.00 0.00 0.00 0.00 0.00 0.00 0.00 0.00 0.00 0.00 0.00 0.00 0.00 0.00 0.00 0.00
0.00 0.00 0.00 0.00 0.00 0.00 0.00 0.00 0.00 0.00 0.00 0.00 0.00 0.00 0.00 0.00 0.00 0.00 0.00 0.00 0.00 0.00 0.00 0.00 0.00 0.00 0.00 0.00 0.00 0.00 0.00 0.00 0.00 0.00 0.00 0.00 0.00 0.00 0.00 0.00 0.00 0.00 0.00 0.00 0.00 0.00 0.01 0.01 0.01
0.00 0.00 0.00 0.00 0.00 0.00 0.00 0.00 0.00 0.00 0.00 0.00 0.00 0.00 0.00 0.00 0.00 0.00 0.00 0.00 0.00 0.00 0.00 0.00 0.00 0.00 0.00 0.00 0.00 0.00 0.00 0.00 0.00 0.00 0.00 0.00 0.00 0.00 0.00 0.00 0.00 0.00 0.00 0.00 0.00 0.00 0.00 0.01 0.01
MSLP
1011.88 1012.23 1012.67 1013.10 1013.43 1013.56 1013.46 1013.11 1012.57 1011.93 1011.30 1010.78 1010.43 1010.27 1010.28 1010.41 1010.59 1010.75 1010.87 1010.97 1011.06 1011.22 1011.48 1011.86 1012.35 1012.90 1013.43 1013.89 1014.24 1014.46 1014.58 1014.65 1014.76 1014.94 1015.23 1015.62 1016.05 1016.48 1016.84 1017.08 1017.20 1017.21 1017.18 1017.14 1017.15 1017.22 1017.34 1017.49 1017.62
1011.90 1012.32 1012.80 1013.23 1013.53 1013.60 1013.41 1012.97 1012.33 1011.61 1010.91 1010.34 1009.97 1009.81 1009.84 1009.99 1010.20 1010.40 1010.58 1010.72 1010.89 1011.12 1011.45 1011.91 1012.48 1013.10 1013.71 1014.24 1014.64 1014.92 1015.08 1015.18 1015.30 1015.47 1015.73 1016.07 1016.44 1016.79 1017.07 1017.24 1017.31 1017.30 1017.26 1017.25 1017.29 1017.40 1017.57 1017.74 1017.88
1012.06 1012.52 1013.01 1013.41 1013.64 1013.63 1013.34 1012.81 1012.10 1011.32 1010.59 1010.01 1009.64 1009.50 1009.55 1009.72 1009.95 1010.19 1010.39 1010.58 1010.80 1011.08 1011.47 1011.99 1012.62 1013.31 1013.98 1014.57 1015.03 1015.35 1015.56 1015.70 1015.83 1016.01 1016.24 1016.52 1016.82 1017.09 1017.30 1017.40 1017.43 1017.40 1017.37 1017.37 1017.45 1017.60 1017.80 1017.99 1018.12
1012.34 1012.83 1013.29 1013.63 1013.77 1013.65 1013.26 1012.65 1011.88 1011.08 1010.36 1009.81 1009.47 1009.36 1009.44 1009.64 1009.89 1010.14 1010.37 1010.59 1010.83 1011.15 1011.58 1012.14 1012.80 1013.52 1014.22 1014.84 1015.33 1015.69 1015.93 1016.10 1016.25 1016.42 1016.63 1016.87 1017.12 1017.34 1017.48 1017.55 1017.55 1017.51 1017.50 1017.54 1017.65 1017.84 1018.05 1018.24 1018.36
1012.72 1013.20 1013.60 1013.84 1013.87 1013.63 1013.15 1012.48 1011.69 1010.90 1010.22 1009.73 1009.46 1009.40 1009.52 1009.74 1010.01 1010.28 1010.51 1010.75 1011.01 1011.34 1011.79 1012.35 1013.01 1013.72 1014.41 1015.02 1015.50 1015.86 1016.11 1016.29 1016.45 1016.62 1016.82 1017.05 1017.27 1017.46 1017.58 1017.64 1017.64 1017.63 1017.65 1017.72 1017.87 1018.08 1018.30 1018.48 1018.57
1013.15 1013.58 1013.89 1014.02 1013.91 1013.57 1013.00 1012.29 1011.51 1010.77 1010.16 1009.75 1009.56 1009.57 1009.73 1009.99 1010.28 1010.55 1010.80 1011.04 1011.31 1011.65 1012.09 1012.64 1013.27 1013.92 1014.55 1015.10 1015.54 1015.86 1016.08 1016.24 1016.40 1016.57 1016.78 1017.01 1017.24 1017.43 1017.56 1017.63 1017.67 1017.70 1017.76 1017.88 1018.07 1018.29 1018.51 1018.67 1018.72
1013.55 1013.90 1014.10 1014.09 1013.87 1013.42 1012.80 1012.08 1011.33 1010.67 1010.15 1009.84 1009.73 1009.81 1010.03 1010.32 1010.62 1010.90 1011.16 1011.42 1011.70 1012.04 1012.47 1012.98 1013.55 1014.13 1014.66 1015.12 1015.46 1015.70 1015.87 1016.00 1016.14 1016.31 1016.53 1016.78 1017.02 1017.24 1017.41 1017.53 1017.61 1017.69 1017.80 1017.97 1018.18 1018.42 1018.63 1018.77 1018.78
1013.85 1014.10 1014.18 1014.05 1013.71 1013.19 1012.54 1011.84 1011.15 1010.58 1010.17 1009.95 1009.93 1010.08 1010.33 1010.64 1010.96 1011.26 1011.54 1011.81 1012.12 1012.47 1012.89 1013.36 1013.87 1014.35 1014.77 1015.10 1015.33 1015.47 1015.56 1015.64 1015.76 1015.93 1016.15 1016.42 1016.70 1016.95 1017.16 1017.32 1017.45 1017.58 1017.73 1017.93 1018.16 1018.41 1018.61 1018.72 1018.71
1014.01 1014.16 1014.11 1013.87 1013.46 1012.90 1012.25 1011.59 1010.99 1010.52 1010.21 1010.08 1010.13 1010.32 1010.60 1010.92 1011.25 1011.56 1011.87 1012.18 1012.51 1012.89 1013.31 1013.76 1014.20 1014.60 1014.91 1015.12 1015.23 1015.26 1015.27 1015.29 1015.37 1015.53 1015.77 1016.05 1016.35 1016.63 1016.87 1017.06 1017.22 1017.37 1017.55 1017.76 1018.00 1018.24 1018.43 1018.53 1018.50
1014.02 1014.06 1013.91 1013.60 1013.14 1012.58 1011.97 1011.39 1010.88 1010.51 1010.29 1010.24 1010.33 1010.54 1010.82 1011.14 1011.46 1011.79 1012.12 1012.47 1012.85 1013.26 1013.70 1014.14 1014.54 1014.87 1015.08 1015.19 1015.19 1015.14 1015.07 1015.04 1015.09 1015.24 1015.47 1015.76 1016.07 1016.36 1016.60 1016.80 1016.96 1017.12 1017.29 1017.50 1017.73 1017.95 1018.12 1018.21 1018.17
1013.89 1013.83 1013.62 1013.27 1012.81 1012.29 1011.76 1011.28 1010.88 1010.61 1010.47 1010.47 1010.58 1010.77 1011.03 1011.32 1011.63 1011.95 1012.30 1012.69 1013.11 1013.57 1014.04 1014.49 1014.87 1015.14 1015.29 1015.32 1015.25 1015.13 1015.00 1014.94 1014.97 1015.10 1015.33 1015.61 1015.92 1016.19 1016.43 1016.60 1016.74 1016.87 1017.01 1017.19 1017.38 1017.58 1017.73 1017.80 1017.75
1013.67 1013.55 1013.30 1012.95 1012.54 1012.10 1011.68 1011.32 1011.04 1010.86 1010.79 1010.81 1010.91 1011.08 1011.28 1011.52 1011.79 1012.10 1012.45 1012.86 1013.32 1013.81 1014.31 1014.77 1015.14 1015.39 1015.50 1015.49 1015.37 1015.21 1015.06 1014.98 1015.00 1015.13 1015.35 1015.63 1015.91 1016.17 1016.37 1016.51 1016.60 1016.68 1016.77 1016.89 1017.04 1017.20 1017.32 1017.37 1017.32
1013.44 1013.27 1013.02 1012.71 1012.38 1012.06 1011.78 1011.55 1011.40 1011.31 1011.29 1011.32 1011.39 1011.50 1011.64 1011.81 1012.01 1012.28 1012.61 1013.02 1013.48 1013.99 1014.50 1014.97 1015.34 1015.58 1015.68 1015.64 1015.52 1015.35 1015.20 1015.12 1015.14 1015.28 1015.49 1015.76 1016.02 1016.25 1016.42 1016.51 1016.56 1016.58 1016.62 1016.68 1016.78 1016.88 1016.97 1016.99 1016.93
1013.23 1013.05 1012.83 1012.60 1012.39 1012.21 1012.07 1011.99 1011.95 1011.95 1011.97 1012.00 1012.04 1012.09 1012.14 1012.23 1012.35 1012.55 1012.83 1013.20 1013.64 1014.13 1014.62 1015.08 1015.44 1015.67 1015.77 1015.74 1015.63 1015.47 1015.34 1015.28 1015.31 1015.45 1015.67 1015.93 1016.18 1016.39 1016.53 1016.59 1016.60 1016.58 1016.56 1016.58 1016.62 1016.68 1016.72 1016.71 1016.63
1013.09 1012.93 1012.77 1012.63 1012.55 1012.51 1012.53 1012.59 1012.66 1012.74 1012.80 1012.83 1012.83 1012.81 1012.79 1012.78 1012.82 1012.94 1013.14 1013.43 1013.81 1014.24 1014.70 1015.11 1015.45 1015.67 1015.77 1015.75 1015.66 1015.53 1015.42 1015.38 1015.43 1015.58 1015.80 1016.05 1016.30 1016.50 1016.63 1016.68 1016.67 1016.63 1016.59 1016.57 1016.57 1016.59 1016.59 1016.55 1016.44
1013.03 1012.90 1012.81 1012.78 1012.82 1012.93 1013.09 1013.27 1013.44 1013.59 1013.68 1013.71 1013.69 1013.62 1013.53 1013.44 1013.39 1013.41 1013.52 1013.72 1014.00 1014.35 1014.73 1015.09 1015.39 1015.59 1015.68 1015.68 1015.61 1015.50 1015.42 1015.39 1015.45 1015.60 1015.81 1016.06 1016.31 1016.51 1016.66 1016.72 1016.73 1016.70 1016.66 1016.63 1016.61 1016.59 1016.56 1016.49 1016.34
1013.02 1012.93 1012.92 1013.00 1013.17 1013.40 1013.67 1013.95 1014.20 1014.39 1014.51 1014.54 1014.50 1014.40 1014.26 1014.11 1013.99 1013.92 1013.93 1014.03 1014.21 1014.46 1014.75 1015.04 1015.28 1015.46 1015.55 1015.56 1015.50 1015.42 1015.35 1015.32 1015.37 1015.50 1015.70 1015.94 1016.18 1016.40 1016.57 1016.68 1016.73 1016.73 1016.72 1016.70 1016.67 1016.64 1016.59 1016.49 1016.32
1013.01 1012.99 1013.07 1013.24 1013.51 1013.84 1014.20 1014.54 1014.84 1015.06 1015.18 1015.22 1015.16 1015.04 1014.88 1014.69 1014.52 1014.39 1014.32 1014.32 1014.41 1014.56 1014.76 1014.98 1015.18 1015.33 1015.42 1015.43 1015.40 1015.32 1015.25 1015.21 1015.24 1015.33 1015.49 1015.70 1015.94 1016.17 1016.37 1016.52 1016.63 1016.69 1016.72 1016.73 1016.71 1016.68 1016.62 1016.50 1016.31
1012.98 1013.03 1013.19 1013.46 1013.81 1014.21 1014.61 1014.98 1015.29 1015.50 1015.62 1015.64 1015.58 1015.45 1015.28 1015.09 1014.90 1014.73 1014.61 1014.55 1014.56 1014.63 1014.76 1014.93 1015.09 1015.23 1015.32 1015.36 1015.34 1015.28 1015.20 1015.13 1015.11 1015.15 1015.25 1015.42 1015.63 1015.86 1016.08 1016.28 1016.44 1016.56 1016.64 1016.68 1016.70 1016.67 1016.60 1016.48 1016.29
1012.89 1013.03 1013.28 1013.63 1014.04 1014.48 1014.89 1015.25 1015.52 1015.69 1015.77 1015.77 1015.70 1015.58 1015.42 1015.24 1015.06 1014.90 1014.76 1014.67 1014.64 1014.67 1014.76 1014.89 1015.04 1015.19 1015.30 1015.36 1015.36 1015.31 1015.22 1015.13 1015.05 1015.02 1015.06 1015.16 1015.32 1015.53 1015.75 1015.98 1016.18 1016.35 1016.48 1016.56 1016.60 1016.58 1016.52 1016.40 1016.21
1012.76 1013.00 1013.34 1013.76 1014.22 1014.66 1015.05 1015.35 1015.56 1015.66 1015.67 1015.62 1015.53 1015.41 1015.27 1015.13 1014.99 1014.86 1014.75 1014.67 1014.63 1014.65 1014.73 1014.86 1015.02 1015.19 1015.34 1015.44 1015.47 1015.44 1015.35 1015.22 1015.10 1015.00 1014.95 1014.98 1015.08 1015.24 1015.45 1015.68 1015.91 1016.10 1016.26 1016.36 1016.41 1016.41 1016.35 1016.24 1016.07
1012.61 1012.95 1013.39 1013.88 1014.36 1014.80 1015.13 1015.36 1015.46 1015.45 1015.38 1015.26 1015.13 1015.00 1014.89 1014.80 1014.72 1014.65 1014.59 1014.56 1014.55 1014.59 1014.68 1014.83 1015.02 1015.22 1015.41 1015.56 1015.63 1015.63 1015.54 1015.40 1015.23 1015.07 1014.96 1014.91 1014.94 1015.05 1015.22 1015.43 1015.64 1015.84 1016.00 1016.11 1016.16 1016.15 1016.10 1015.99 1015.84
1012.49 1012.93 1013.46 1014.00 1014.51 1014.91 1015.19 1015.31 1015.29 1015.16 1014.97 1014.77 1014.59 1014.46 1014.37 1014.33 1014.32 1014.33 1014.35 1014.37 1014.42 1014.50 1014.62 1014.79 1015.01 1015.25 1015.48 1015.67 1015.78 1015.81 1015.75 1015.61 1015.41 1015.21 1015.04 1014.93 1014.89 1014.94 1015.06 1015.22 1015.41 1015.58 1015.72 1015.81 1015.85 1015.83 1015.77 1015.67 1015.54
1012.42 1012.96 1013.56 1014.15 1014.66 1015.03 1015.23 1015.24 1015.10 1014.84 1014.54 1014.25 1014.02 1013.87 1013.81 1013.82 1013.89 1013.98 1014.08 1014.18 1014.28 1014.40 1014.56 1014.75 1014.99 1015.25 1015.50 1015.72 1015.87 1015.94 1015.90 1015.77 1015.58 1015.36 1015.15 1014.99 1014.90 1014.89 1014.96 1015.07 1015.21 1015.34 1015.44 1015.50 1015.51 1015.47 1015.39 1015.29 1015.17
1012.41 1013.03 1013.68 1014.30 1014.81 1015.14 1015.25 1015.17 1014.91 1014.53 1014.13 1013.76 1013.48 1013.32 1013.29 1013.35 1013.49 1013.67 1013.85 1014.02 1014.18 1014.34 1014.51 1014.71 1014.95 1015.20 1015.46 1015.70 1015.87 1015.95 1015.94 1015.84 1015.66 1015.45 1015.23 1015.05 1014.92 1014.87 1014.88 1014.94 1015.03 1015.11 1015.16 1015.17 1015.13 1015.06 1014.96 1014.85 1014.73
1012.46 1013.12 1013.79 1014.42 1014.90 1015.18 1015.22 1015.05 1014.70 1014.23 1013.75 1013.33 1013.02 1012.86 1012.85 1012.98 1013.19 1013.44 1013.70 1013.93 1014.14 1014.32 1014.50 1014.69 1014.90 1015.13 1015.37 1015.58 1015.75 1015.85 1015.86 1015.78 1015.63 1015.44 1015.23 1015.04 1014.90 1014.82 1014.79 1014.80 1014.83 1014.86 1014.86 1014.82 1014.74 1014.63 1014.50 1014.37 1014.24
1012.53 1013.17 1013.84 1014.43 1014.87 1015.09 1015.08 1014.84 1014.42 1013.91 1013.39 1012.94 1012.63 1012.49 1012.52 1012.70 1012.98 1013.31 1013.63 1013.92 1014.16 1014.36 1014.53 1014.69 1014.86 1015.04 1015.23 1015.41 1015.55 1015.64 1015.66 1015.61 1015.48 1015.32 1015.13 1014.96 1014.81 1014.71 1014.65 1014.62 1014.61 1014.58 1014.53 1014.45 1014.33 1014.18 1014.02 1013.86 1013.72
1012.55 1013.15 1013.76 1014.29 1014.67 1014.84 1014.77 1014.49 1014.05 1013.52 1013.00 1012.57 1012.28 1012.18 1012.27 1012.51 1012.85 1013.24 1013.62 1013.96 1014.22 1014.43 1014.58 1014.70 1014.82 1014.94 1015.07 1015.20 1015.30 1015.37 1015.39 1015.34 1015.24 1015.10 1014.94 1014.78 1014.64 1014.53 1014.45 1014.39 1014.33 1014.27 1014.18 1014.06 1013.90 1013.73 1013.54 1013.35 1013.18
1012.50 1013.01 1013.53 1013.97 1014.27 1014.37 1014.27 1013.97 1013.54 1013.04 1012.55 1012.17 1011.95 1011.91 1012.05 1012.35 1012.75 1013.19 1013.62 1013.99 1014.28 1014.49 1014.63 1014.72 1014.79 1014.85 1014.92 1014.98 1015.04 1015.08 1015.08 1015.03 1014.94 1014.82 1014.67 1014.53 1014.39 1014.27 1014.18 1014.09 1014.01 1013.91 1013.80 1013.65 1013.47 1013.27 1013.06 1012.85 1012.66
1012.36 1012.76 1013.15 1013.48 1013.68 1013.72 1013.59 1013.30 1012.90 1012.46 1012.05 1011.75 1011.60 1011.63 1011.83 1012.18 1012.63 1013.11 1013.57 1013.96 1014.27 1014.49 1014.62 1014.70 1014.73 1014.75 1014.77 1014.79 1014.80 1014.80 1014.78 1014.72 1014.63 1014.51 1014.37 1014.23 1014.09 1013.97 1013.85 1013.75 1013.64 1013.53 1013.39 1013.23 1013.04 1012.83 1012.61 1012.38 1012.16
Thickness
5822 5826 5828 5821 5812 5813 5812 5819 5827 5828 5834 5843 5846 5843 5836 5829 5821 5811 5828 5838 5834 5828 5818 5808 5803 5800 5797 5794 5792 5790 5787 5784 5781 5778 5775 5772 5769 5767 5765 5763 5761 5759 5758 5757 5756 5755 5754 5753 5752
5829 5829 5823 5818 5810 5806 5809 5822 5823 5829 5840 5847 5847 5843 5837 5830 5830 5827 5830 5831 5830 5824 5815 5808 5800 5797 5794 5791 5789 5786 5783 5781 5778 5775 5772 5770 5767 5765 5763 5761 5759 5758 5756 5755 5754 5753 5752 5751 5750
5829 5828 5818 5815 5809 5805 5807 5821 5826 5836 5847 5845 5841 5841 5833 5824 5826 5828 5831 5829 5826 5820 5813 5805 5798 5794 5791 5788 5785 5783 5780 5777 5774 5772 5769 5767 5764 5762 5760 5758 5757 5756 5754 5753 5752 5751 5750 5748 5747
5827 5821 5817 5810 5806 5812 5815 5823 5831 5834 5840 5844 5840 5832 5830 5826 5829 5831 5829 5827 5821 5816 5810 5801 5794 5790 5787 5784 5782 5779 5777 5774 5771 5768 5766 5763 5761 5760 5758 5756 5755 5753 5752 5751 5749 5748 5747 5746 5745
5825 5816 5807 5806 5807 5814 5823 5828 5833 5829 5830 5837 5837 5827 5821 5823 5830 5829 5825 5823 5818 5814 5808 5797 5790 5786 5783 5780 5778 5775 5773 5770 5768 5765 5763 5761 5759 5757 5755 5754 5752 5751 5749 5748 5747 5745 5744 5743 5742
5814 5811 5798 5798 5803 5811 5821 5828 5829 5826 5828 5832 5832 5824 5814 5820 5822 5821 5821 5818 5816 5811 5805 5793 5785 5782 5778 5776 5773 5771 5769 5767 5764 5762 5760 5758 5756 5754 5752 5751 5749 5748 5747 5745 5744 5743 5741 5740 5739
5805 5801 5795 5794 5795 5801 5812 5824 5822 5819 5820 5826 5833 5822 5812 5813 5816 5817 5815 5813 5812 5807 5801 5791 5784 5778 5774 5771 5769 5767 5765 5763 5761 5758 5756 5755 5753 5751 5750 5748 5747 5745 5744 5743 5742 5741 5739 5738 5737
5806 5798 5792 5793 5789 5795 5811 5818 5821 5819 5817 5829 5832 5819 5809 5808 5812 5810 5807 5806 5804 5800 5796 5790 5784 5779 5774 5770 5765 5763 5761 5759 5757 5755 5754 5752 5750 5749 5747 5746 5745 5743 5742 5740 5739 5738 5737 5736 5735
5798 5785 5784 5789 5788 5795 5808 5808 5817 5824 5819 5819 5821 5821 5819 5812 5808 5802 5796 5794 5793 5791 5789 5787 5782 5776 5773 5770 5765 5761 5757 5756 5754 5753 5751 5749 5750 5750 5747 5746 5743 5741 5740 5738 5737 5736 5735 5734 5734
5787 5778 5784 5792 5794 5795 5800 5803 5808 5811 5808 5807 5806 5807 5809 5805 5801 5795 5790 5787 5784 5782 5782 5781 5778 5773 5770 5768 5763 5760 5758 5755 5753 5753 5750 5748 5747 5746 5746 5743 5740 5738 5737 5736 5735 5734 5733 5732 5735
5784 5778 5786 5791 5796 5796 5795 5799 5805 5801 5796 5800 5798 5797 5799 5797 5795 5791 5788 5786 5782 5779 5777 5775 5771 5768 5766 5763 5760 5757 5756 5753 5751 5749 5746 5744 5743 5743 5742 5741 5739 5737 5736 5736 5735 5733 5733 5733 5734
5778 5781 5784 5787 5792 5791 5791 5793 5793 5792 5790 5799 5801 5799 5796 5792 5790 5788 5783 5781 5779 5775 5773 5770 5765 5761 5758 5757 5756 5752 5751 5748 5747 5744 5741 5740 5738 5737 5737 5736 5736 5735 5734 5733 5732 5731 5731 5731 5731
5775 5779 5785 5788 5789 5788 5788 5786 5783 5781 5788 5793 5794 5792 5789 5788 5786 5785 5783 5779 5774 5768 5765 5762 5759 5755 5752 5750 5748 5748 5744 5742 5740 5737 5735 5733 5733 5732 5732 5731 5731 5731 5731 5730 5729 5729 5729 5728 5728
5781 5781 5783 5785 5784 5783 5779 5779 5778 5773 5782 5782 5782 5781 5782 5781 5779 5777 5774 5771 5768 5764 5760 5756 5753 5750 5746 5744 5741 5740 5738 5735 5733 5731 5730 5729 5729 5729 5728 5727 5727 5727 5727 5726 5725 5726 5726 5726 5726
5782 5775 5780 5781 5779 5778 5776 5766 5764 5769 5774 5770 5771 5771 5771 5771 5770 5768 5767 5765 5763 5759 5756 5751 5747 5745 5742 5738 5735 5734 5731 5729 5728 5726 5725 5725 5726 5725 5724 5724 5723 5723 5722 5720 5720 5721 5722 5722 5724
5780 5774 5771 5775 5775 5775 5767 5754 5757 5764 5765 5760 5760 5760 5759 5759 5760 5760 5760 5758 5757 5755 5750 5747 5744 5740 5737 5733 5731 5731 5728 5725 5724 5723 5722 5721 5721 5720 5720 5720 5719 5717 5717 5717 5717 5717 5717 5718 5719
5775 5770 5767 5769 5773 5771 5766 5753 5751 5758 5757 5752 5751 5752 5751 5750 5750 5751 5753 5753 5752 5749 5745 5741 5739 5736 5733 5731 5728 5727 5724 5723 5722 5721 5719 5718 5716 5715 5715 5714 5712 5711 5712 5712 5712 5714 5712 5713 5713
5765 5767 5765 5762 5765 5764 5758 5750 5747 5749 5749 5746 5745 5745 5743 5742 5741 5744 5747 5747 5746 5744 5741 5737 5734 5731 5730 5728 5725 5724 5722 5721 5719 5717 5714 5712 5711 5709 5709 5708 5706 5706 5707 5706 5705 5704 5705 5706 5708
5769 5764 5761 5760 5762 5758 5750 5744 5741 5742 5740 5738 5738 5738 5738 5736 5739 5741 5742 5741 5740 5738 5736 5733 5731 5728 5726 5725 5723 5720 5719 5717 5716 5713 5709 5707 5705 5704 5702 5703 5700 5699 5700 5697 5698 5698 5699 5700 5703
5768 5761 5761 5758 5759 5754 5745 5740 5740 5739 5736 5735 5734 5734 5734 5733 5734 5735 5736 5736 5735 5734 5733 5730 5727 5725 5723 5721 5719 5716 5714 5713 5711 5708 5704 5702 5700 5697 5698 5694 5694 5693 5690 5689 5689 5689 5690 5693 5695
5768 5764 5761 5756 5754 5754 5745 5734 5734 5737 5737 5735 5735 5736 5736 5734 5733 5733 5734 5732 5732 5730 5729 5728 5723 5721 5718 5716 5715 5711 5708 5706 5706 5702 5700 5696 5693 5691 5688 5687 5686 5684 5684 5685 5682 5681 5681 5683 5687
5764 5769 5764 5756 5750 5747 5744 5729 5732 5735 5733 5733 5734 5736 5736 5736 5736 5735 5733 5731 5730 5730 5728 5724 5720 5717 5714 5711 5710 5706 5703 5701 5699 5696 5695 5690 5686 5684 5682 5679 5678 5676 5677 5676 5675 5678 5676 5674 5677
5766 5769 5764 5759 5754 5748 5745 5736 5735 5737 5731 5733 5736 5737 5738 5738 5737 5735 5734 5732 5731 5730 5727 5722 5717 5713 5710 5707 5704 5699 5698 5696 5694 5690 5687 5682 5681 5678 5675 5673 5671 5669 5669 5669 5667 5667 5667 5669 5670
5769 5764 5759 5758 5758 5738 5738 5734 5731 5740 5738 5739 5740 5740 5740 5740 5739 5737 5736 5733 5731 5729 5726 5722 5715 5709 5706 5702 5699 5694 5690 5687 5684 5680 5679 5677 5677 5674 5671 5667 5664 5662 5662 5661 5659 5659 5660 5660 5661
5767 5756 5745 5740 5741 5736 5741 5737 5736 5746 5748 5746 5743 5743 5744 5743 5741 5737 5735 5732 5729 5726 5722 5718 5712 5706 5702 5698 5694 5690 5685 5681 5677 5675 5674 5670 5670 5669 5665 5661 5657 5656 5655 5653 5652 5652 5652 5653 5652
5765 5760 5739 5726 5731 5739 5739 5735 5744 5752 5752 5751 5749 5748 5746 5744 5742 5738 5736 5732 5729 5725 5720 5715 5708 5703 5699 5694 5689 5685 5680 5678 5676 5671 5667 5665 5663 5662 5657 5653 5651 5649 5647 5647 5646 5646 5646 5646 5645
5762 5762 5765 5750 5744 5737 5741 5742 5748 5750 5748 5748 5748 5746 5745 5744 5742 5738 5736 5732 5727 5722 5717 5712 5705 5699 5694 5690 5684 5680 5676 5672 5669 5664 5662 5661 5657 5654 5651 5647 5645 5643 5641 5639 5638 5639 5638 5638 5638
5772 5768 5757 5748 5728 5728 5733 5736 5742 5743 5745 5749 5748 5747 5746 5744 5741 5737 5733 5728 5723 5718 5713 5708 5702 5696 5691 5687 5682 5680 5674 5669 5664 5661 5656 5653 5649 5646 5643 5641 5638 5636 5634 5632 5631 5631 5632 5630 5630
5760 5759 5757 5754 5747 5736 5728 5738 5761 5755 5754 5752 5751 5750 5747 5743 5740 5735 5730 5725 5720 5715 5710 5704 5699 5693 5688 5683 5678 5673 5670 5666 5661 5657 5653 5649 5644 5640 5637 5635 5632 5630 5628 5626 5624 5624 5623 5622 5622
5768 5763 5756 5742 5738 5740 5739 5743 5766 5763 5761 5758 5755 5752 5748 5744 5740 5734 5728 5722 5717 5711 5707 5701 5696 5691 5686 5681 5675 5670 5666 5661 5657 5653 5648 5643 5639 5635 5632 5629 5626 5623 5622 5620 5617 5616 5615 5614 5613